RYR32UU EGBB-LGKR

Flight info

Callsign RYR32UU
Flight time 2h 53m
Altitude 37000
Route ADMEX Y321 EMKUK UL612 COWLY Q70 BIG UL9 KONAN UL607 SPI DCT ULNOK DCT NOMBO DCT RADIZ DCT DARZA DCT VAKSU DCT RODON DCT LIMJA N732 PITAS
Aircraft B738/M-SDE2E3FGHIRWXY/LB1

Departure

Time 2026-04-28 13:35
Airport Birmingham Airport (EGBB)

Arrival

Time 2026-04-28 16:28
Airport Corfu Ioannis Kapodistrias International Airport (LGKR)
Time Latitude Longitude Altitude Speed Heading
2026-04-28 13:06 52.45354 -1.73630 322 ft 0 kts 146°
2026-04-28 13:26 52.45361 -1.73638 322 ft 3 kts 146°
2026-04-28 13:26 52.45378 -1.73656 318 ft 3 kts 147°
2026-04-28 13:26 52.45395 -1.73673 320 ft 3 kts 157°
2026-04-28 13:27 52.45414 -1.73683 318 ft 3 kts 175°
2026-04-28 13:27 52.45432 -1.73681 321 ft 3 kts 212°
2026-04-28 13:27 52.45440 -1.73671 319 ft 0 kts 236°
2026-04-28 13:27 52.45433 -1.73688 321 ft 2 kts 236°
2026-04-28 13:28 52.45431 -1.73693 322 ft 0 kts 236°
2026-04-28 13:30 52.45430 -1.73694 322 ft 0 kts 236°
2026-04-28 13:30 52.45418 -1.73723 319 ft 8 kts 235°
2026-04-28 13:30 52.45366 -1.73846 322 ft 16 kts 235°
2026-04-28 13:30 52.45313 -1.73985 322 ft 11 kts 252°
2026-04-28 13:31 52.45397 -1.74320 322 ft 22 kts 295°
2026-04-28 13:31 52.45465 -1.74540 322 ft 17 kts 298°
2026-04-28 13:31 52.45553 -1.74661 321 ft 17 kts 327°
2026-04-28 13:32 52.45656 -1.74775 315 ft 19 kts 325°
2026-04-28 13:32 52.45770 -1.74902 309 ft 20 kts 326°
2026-04-28 13:32 52.45886 -1.75029 306 ft 20 kts 326°
2026-04-28 13:32 52.45997 -1.75154 304 ft 19 kts 326°
2026-04-28 13:33 52.46108 -1.75277 304 ft 21 kts 326°
2026-04-28 13:33 52.46214 -1.75399 301 ft 13 kts 313°
2026-04-28 13:33 52.46190 -1.75527 309 ft 13 kts 235°
2026-04-28 13:33 52.46146 -1.75622 308 ft 8 kts 204°
2026-04-28 13:34 52.46094 -1.75589 310 ft 9 kts 146°
2026-04-28 13:34 52.46014 -1.75498 310 ft 22 kts 146°
2026-04-28 13:34 52.45683 -1.75131 321 ft 93 kts 146°
2026-04-28 13:34 52.44958 -1.74326 325 ft 155 kts 146°
2026-04-28 13:35 52.43976 -1.73255 810 ft 170 kts 140°
2026-04-28 13:35 52.43002 -1.72183 1751 ft 170 kts 138°
2026-04-28 13:35 52.41997 -1.71035 2317 ft 186 kts 137°
2026-04-28 13:35 52.40789 -1.69914 2602 ft 218 kts 157°
2026-04-28 13:36 52.39247 -1.69320 3097 ft 228 kts 161°
2026-04-28 13:36 52.37711 -1.68642 3693 ft 227 kts 150°
2026-04-28 13:36 52.36339 -1.67527 4422 ft 222 kts 146°
2026-04-28 13:36 52.34934 -1.66302 4831 ft 240 kts 142°
2026-04-28 13:37 52.33477 -1.64790 5309 ft 253 kts 141°
2026-04-28 13:37 52.31991 -1.63216 6103 ft 255 kts 142°
2026-04-28 13:37 52.30502 -1.61656 6979 ft 254 kts 142°
2026-04-28 13:37 52.29003 -1.60099 7709 ft 257 kts 142°
2026-04-28 13:38 52.27473 -1.58516 8423 ft 262 kts 142°
2026-04-28 13:38 52.25923 -1.56918 9251 ft 262 kts 142°
2026-04-28 13:38 52.24325 -1.55485 9993 ft 269 kts 147°
2026-04-28 13:38 52.22625 -1.54154 10660 ft 275 kts 148°
2026-04-28 13:39 52.20819 -1.52744 10871 ft 299 kts 148°
2026-04-28 13:39 52.18882 -1.51224 11077 ft 319 kts 148°
2026-04-28 13:39 52.16844 -1.49620 11555 ft 329 kts 148°
2026-04-28 13:39 52.14762 -1.47979 12200 ft 334 kts 148°
2026-04-28 13:40 52.12686 -1.46343 12903 ft 337 kts 148°
2026-04-28 13:40 52.10550 -1.44662 13661 ft 340 kts 148°
2026-04-28 13:40 52.08398 -1.42967 14320 ft 345 kts 148°
2026-04-28 13:40 52.06254 -1.41279 14947 ft 349 kts 148°
2026-04-28 13:41 52.04055 -1.39548 15618 ft 353 kts 147°
2026-04-28 13:41 52.01838 -1.37806 16308 ft 356 kts 147°
2026-04-28 13:41 51.99594 -1.36044 16988 ft 359 kts 147°
2026-04-28 13:41 51.97328 -1.34266 17661 ft 363 kts 147°
2026-04-28 13:42 51.95041 -1.32473 18322 ft 367 kts 147°
2026-04-28 13:42 51.92726 -1.30660 18930 ft 371 kts 146°
2026-04-28 13:42 51.90407 -1.28847 19498 ft 374 kts 146°
2026-04-28 13:42 51.88042 -1.27000 20049 ft 378 kts 146°
2026-04-28 13:43 51.85688 -1.25163 20584 ft 382 kts 146°
2026-04-28 13:43 51.83285 -1.23291 21143 ft 386 kts 146°
2026-04-28 13:43 51.80851 -1.21397 21693 ft 389 kts 146°
2026-04-28 13:43 51.78401 -1.19493 22343 ft 392 kts 146°
2026-04-28 13:44 51.75932 -1.17577 22907 ft 395 kts 146°
2026-04-28 13:44 51.73438 -1.15644 23383 ft 399 kts 145°
2026-04-28 13:44 51.70921 -1.13693 23853 ft 404 kts 145°
2026-04-28 13:44 51.68366 -1.11717 24268 ft 407 kts 145°
2026-04-28 13:45 51.65807 -1.09742 24711 ft 409 kts 145°
2026-04-28 13:45 51.63297 -1.07613 25122 ft 402 kts 135°
2026-04-28 13:45 51.61938 -1.05674 25362 ft 390 kts 123°
2026-04-28 13:45 51.60077 -1.00909 25938 ft 375 kts 106°
2026-04-28 13:46 51.59119 -0.97015 26350 ft 376 kts 104°
2026-04-28 13:46 51.58165 -0.93071 26687 ft 381 kts 106°
2026-04-28 13:46 51.57185 -0.89092 27007 ft 385 kts 107°
2026-04-28 13:46 51.56173 -0.85084 27388 ft 389 kts 107°
2026-04-28 13:47 51.55477 -0.82358 27618 ft 392 kts 107°
2026-04-28 13:47 51.54448 -0.78345 27975 ft 394 kts 108°
2026-04-28 13:47 51.53384 -0.74210 28339 ft 396 kts 108°
2026-04-28 13:47 51.52344 -0.70165 28689 ft 399 kts 107°
2026-04-28 13:48 51.51502 -0.65932 28972 ft 397 kts 97°
2026-04-28 13:48 51.51021 -0.61551 29303 ft 398 kts 96°
2026-04-28 13:48 51.50551 -0.57156 29624 ft 401 kts 96°
2026-04-28 13:48 51.50071 -0.52726 29943 ft 403 kts 96°
2026-04-28 13:49 51.49580 -0.48275 30247 ft 406 kts 96°
2026-04-28 13:49 51.49080 -0.43810 30561 ft 407 kts 97°
2026-04-28 13:49 51.48575 -0.39351 30898 ft 406 kts 97°
2026-04-28 13:49 51.48065 -0.34889 31214 ft 407 kts 97°
2026-04-28 13:50 51.47552 -0.30422 31501 ft 408 kts 97°
2026-04-28 13:50 51.47035 -0.25942 31790 ft 409 kts 97°
2026-04-28 13:50 51.46516 -0.21460 32117 ft 409 kts 97°
2026-04-28 13:50 51.45992 -0.16955 32428 ft 410 kts 97°
2026-04-28 13:51 51.45475 -0.12520 32701 ft 411 kts 97°
2026-04-28 13:51 51.44940 -0.07949 33003 ft 411 kts 97°
2026-04-28 13:51 51.44417 -0.03493 33289 ft 412 kts 97°
2026-04-28 13:51 51.43884 0.01029 33546 ft 413 kts 98°
2026-04-28 13:52 51.43347 0.05582 33650 ft 418 kts 98°
2026-04-28 13:52 51.42802 0.10179 33885 ft 419 kts 98°
2026-04-28 13:52 51.42257 0.14751 34247 ft 418 kts 98°
2026-04-28 13:52 51.41709 0.19334 34507 ft 418 kts 98°
2026-04-28 13:53 51.41159 0.23915 34719 ft 419 kts 98°
2026-04-28 13:53 51.40614 0.28444 34948 ft 419 kts 99°
2026-04-28 13:53 51.40061 0.33027 35161 ft 419 kts 99°
2026-04-28 13:53 51.39504 0.37626 35393 ft 419 kts 99°
2026-04-28 13:54 51.38947 0.42205 35688 ft 418 kts 99°
2026-04-28 13:54 51.38392 0.46751 35970 ft 416 kts 99°
2026-04-28 13:54 51.37837 0.51289 36247 ft 415 kts 99°
2026-04-28 13:54 51.37281 0.55811 36543 ft 413 kts 99°
2026-04-28 13:55 51.36726 0.60320 36789 ft 413 kts 99°
2026-04-28 13:55 51.36169 0.64824 37031 ft 412 kts 99°
2026-04-28 13:55 51.35611 0.69324 37269 ft 411 kts 99°
2026-04-28 13:55 51.35050 0.73835 37259 ft 416 kts 99°
2026-04-28 13:56 51.33905 0.82998 37285 ft 424 kts 99°
2026-04-28 13:56 51.32741 0.92240 37283 ft 428 kts 100°
2026-04-28 13:57 51.31556 1.01578 37277 ft 429 kts 101°
2026-04-28 13:57 51.30365 1.10907 37253 ft 427 kts 101°
2026-04-28 13:58 51.29174 1.20166 37257 ft 424 kts 101°
2026-04-28 13:58 51.27984 1.29367 37268 ft 421 kts 101°
2026-04-28 13:59 51.26794 1.38508 37254 ft 420 kts 101°
2026-04-28 13:59 51.25592 1.47677 37270 ft 424 kts 101°
2026-04-28 14:00 51.24378 1.56881 37262 ft 427 kts 102°
2026-04-28 14:00 51.23143 1.66189 37259 ft 429 kts 102°
2026-04-28 14:01 51.21897 1.75507 37260 ft 429 kts 102°
2026-04-28 14:01 51.20650 1.84782 37242 ft 426 kts 102°
2026-04-28 14:02 51.19404 1.93984 37214 ft 424 kts 102°
2026-04-28 14:02 51.18150 2.03189 37231 ft 426 kts 102°
2026-04-28 14:03 51.16887 2.12405 37216 ft 429 kts 102°
2026-04-28 14:03 51.15603 2.21715 37231 ft 431 kts 102°
2026-04-28 14:04 51.14307 2.31055 37223 ft 432 kts 102°
2026-04-28 14:04 51.12861 2.40325 37197 ft 431 kts 105°
2026-04-28 14:05 51.11204 2.49506 37203 ft 431 kts 106°
2026-04-28 14:05 51.09541 2.58690 37194 ft 432 kts 106°
2026-04-28 14:06 51.07905 2.67859 37189 ft 431 kts 106°
2026-04-28 14:06 51.06286 2.76981 37198 ft 431 kts 106°
2026-04-28 14:07 51.04655 2.86144 37196 ft 431 kts 106°
2026-04-28 14:07 51.03015 2.95315 37206 ft 431 kts 106°
2026-04-28 14:08 51.01365 3.04485 37188 ft 432 kts 106°
2026-04-28 14:08 50.99705 3.13666 37200 ft 433 kts 106°
2026-04-28 14:09 50.98031 3.22874 37188 ft 435 kts 106°
2026-04-28 14:09 50.96356 3.32045 37170 ft 436 kts 107°
2026-04-28 14:10 50.94657 3.41305 37176 ft 437 kts 107°
2026-04-28 14:10 50.92947 3.50569 37172 ft 439 kts 107°
2026-04-28 14:11 50.91223 3.59868 37184 ft 440 kts 107°
2026-04-28 14:11 50.89490 3.69167 37174 ft 442 kts 107°
2026-04-28 14:12 50.87733 3.78548 37168 ft 443 kts 107°
2026-04-28 14:12 50.85972 3.87903 37174 ft 443 kts 107°
2026-04-28 14:13 50.84212 3.97206 37169 ft 444 kts 107°
2026-04-28 14:13 50.82430 4.06575 37172 ft 444 kts 107°
2026-04-28 14:14 50.80569 4.15907 37160 ft 445 kts 108°
2026-04-28 14:14 50.78666 4.25203 37155 ft 445 kts 109°
2026-04-28 14:15 50.76760 4.34507 37160 ft 445 kts 109°
2026-04-28 14:15 50.74855 4.43806 37158 ft 445 kts 109°
2026-04-28 14:16 50.72945 4.53107 37161 ft 445 kts 109°
2026-04-28 14:16 50.71026 4.62409 37156 ft 445 kts 109°
2026-04-28 14:17 50.69102 4.71694 37146 ft 446 kts 109°
2026-04-28 14:17 50.67176 4.80939 37154 ft 446 kts 109°
2026-04-28 14:18 50.65230 4.90242 37155 ft 447 kts 109°
2026-04-28 14:18 50.63275 4.99544 37154 ft 448 kts 110°
2026-04-28 14:19 50.61305 5.08870 37149 ft 449 kts 109°
2026-04-28 14:19 50.59336 5.18152 37138 ft 450 kts 110°
2026-04-28 14:20 50.57344 5.27501 37141 ft 451 kts 110°
2026-04-28 14:20 50.55331 5.36901 37139 ft 453 kts 110°
2026-04-28 14:21 50.53315 5.46272 37137 ft 455 kts 110°
2026-04-28 14:21 50.51278 5.55701 37139 ft 456 kts 110°
2026-04-28 14:22 50.49229 5.65139 37128 ft 457 kts 111°
2026-04-28 14:22 50.47162 5.74615 37142 ft 458 kts 110°
2026-04-28 14:23 50.45085 5.84099 37126 ft 460 kts 110°
2026-04-28 14:23 50.42995 5.93596 37133 ft 460 kts 110°
2026-04-28 14:24 50.40898 6.03078 37133 ft 460 kts 110°
2026-04-28 14:24 50.38805 6.12504 37129 ft 461 kts 111°
2026-04-28 14:25 50.36685 6.22005 37139 ft 461 kts 111°
2026-04-28 14:25 50.34558 6.31496 37109 ft 461 kts 111°
2026-04-28 14:26 50.32438 6.40911 37113 ft 461 kts 111°
2026-04-28 14:26 50.30296 6.50386 37093 ft 462 kts 111°
2026-04-28 14:27 50.28146 6.59848 37102 ft 462 kts 111°
2026-04-28 14:27 50.25986 6.69316 37134 ft 462 kts 111°
2026-04-28 14:28 50.23819 6.78768 37137 ft 462 kts 111°
2026-04-28 14:28 50.21644 6.88216 37150 ft 462 kts 111°
2026-04-28 14:29 50.19460 6.97661 37155 ft 462 kts 111°
2026-04-28 14:29 50.17284 7.07033 37164 ft 463 kts 111°
2026-04-28 14:30 50.15082 7.16470 37158 ft 464 kts 111°
2026-04-28 14:30 50.12867 7.25924 37155 ft 464 kts 111°
2026-04-28 14:31 50.10635 7.35406 37143 ft 466 kts 111°
2026-04-28 14:31 50.08395 7.44884 37131 ft 467 kts 111°
2026-04-28 14:32 50.06521 7.52780 37143 ft 468 kts 111°
2026-04-28 14:32 50.03881 7.63856 37148 ft 469 kts 111°
2026-04-28 14:33 50.01985 7.71776 37140 ft 470 kts 111°
2026-04-28 14:33 49.99323 7.82850 37135 ft 470 kts 111°
2026-04-28 14:34 49.96247 7.95573 37140 ft 470 kts 111°
2026-04-28 14:35 49.93824 8.05018 37129 ft 469 kts 119°
2026-04-28 14:35 49.90165 8.13339 37131 ft 466 kts 129°
2026-04-28 14:36 49.86256 8.21370 37124 ft 467 kts 129°
2026-04-28 14:36 49.82387 8.29377 37119 ft 467 kts 129°
2026-04-28 14:37 49.78507 8.37460 37123 ft 468 kts 129°
2026-04-28 14:37 49.74624 8.45555 37130 ft 468 kts 129°
2026-04-28 14:38 49.70736 8.53640 37133 ft 469 kts 129°
2026-04-28 14:38 49.66833 8.61725 37144 ft 469 kts 129°
2026-04-28 14:39 49.62926 8.69796 37126 ft 470 kts 129°
2026-04-28 14:39 49.59005 8.77867 37155 ft 470 kts 129°
2026-04-28 14:40 49.55072 8.85940 37127 ft 471 kts 129°
2026-04-28 14:40 49.51128 8.94010 37109 ft 472 kts 129°
2026-04-28 14:41 49.47198 9.02028 37111 ft 472 kts 129°
2026-04-28 14:41 49.43235 9.10088 37103 ft 473 kts 129°
2026-04-28 14:42 49.39260 9.18150 37109 ft 473 kts 130°
2026-04-28 14:42 49.35267 9.26223 37104 ft 474 kts 130°
2026-04-28 14:43 49.31272 9.34275 37101 ft 475 kts 130°
2026-04-28 14:43 49.27283 9.42290 37088 ft 477 kts 131°
2026-04-28 14:44 49.23254 9.50361 37104 ft 478 kts 131°
2026-04-28 14:44 49.19196 9.58466 37104 ft 480 kts 131°
2026-04-28 14:45 49.15124 9.66574 37107 ft 481 kts 131°
2026-04-28 14:45 49.11037 9.74688 37094 ft 483 kts 131°
2026-04-28 14:46 49.06931 9.82817 37103 ft 484 kts 131°
2026-04-28 14:46 49.02834 9.90901 37105 ft 485 kts 131°
2026-04-28 14:47 48.98700 9.99032 37108 ft 485 kts 131°
2026-04-28 14:47 48.94553 10.07165 37110 ft 486 kts 131°
2026-04-28 14:48 48.90399 10.15290 37113 ft 486 kts 131°
2026-04-28 14:48 48.86235 10.23408 37124 ft 487 kts 131°
2026-04-28 14:49 48.82090 10.31463 37119 ft 486 kts 131°
2026-04-28 14:49 48.77919 10.39547 37122 ft 486 kts 131°
2026-04-28 14:50 48.73736 10.47626 37118 ft 486 kts 131°
2026-04-28 14:50 48.69514 10.55644 37115 ft 484 kts 136°
2026-04-28 14:51 48.64856 10.62896 37113 ft 482 kts 140°
2026-04-28 14:51 48.60050 10.69942 37112 ft 481 kts 140°
2026-04-28 14:52 48.55262 10.77022 37095 ft 481 kts 140°
2026-04-28 14:52 48.50505 10.84143 37072 ft 481 kts 139°
2026-04-28 14:53 48.45791 10.91223 37073 ft 481 kts 139°
2026-04-28 14:53 48.41037 10.98348 37080 ft 481 kts 139°
2026-04-28 14:54 48.36290 11.05436 37075 ft 481 kts 139°
2026-04-28 14:54 48.31527 11.12527 37081 ft 481 kts 140°
2026-04-28 14:55 48.26795 11.19551 37083 ft 481 kts 140°
2026-04-28 14:55 48.22026 11.26610 37074 ft 481 kts 140°
2026-04-28 14:56 48.17243 11.33670 37079 ft 481 kts 140°
2026-04-28 14:56 48.12495 11.40661 37076 ft 481 kts 140°
2026-04-28 14:57 48.07714 11.47679 37057 ft 482 kts 140°
2026-04-28 14:57 48.02928 11.54686 37092 ft 481 kts 140°
2026-04-28 14:58 47.98098 11.61739 37085 ft 482 kts 140°
2026-04-28 14:58 47.93306 11.68716 37087 ft 482 kts 140°
2026-04-28 14:59 47.88529 11.75652 37087 ft 482 kts 140°
2026-04-28 14:59 47.83714 11.82626 37085 ft 483 kts 140°
2026-04-28 15:00 47.78896 11.89583 37088 ft 482 kts 140°
2026-04-28 15:00 47.74069 11.96535 37080 ft 483 kts 140°
2026-04-28 15:01 47.69238 12.03474 37073 ft 483 kts 140°
2026-04-28 15:01 47.64408 12.10393 37060 ft 482 kts 140°
2026-04-28 15:02 47.59612 12.17246 37069 ft 480 kts 140°
2026-04-28 15:02 47.54795 12.24107 37061 ft 481 kts 140°
2026-04-28 15:03 47.49956 12.30982 37060 ft 482 kts 140°
2026-04-28 15:03 47.45102 12.37859 37056 ft 483 kts 140°
2026-04-28 15:04 47.40245 12.44724 37069 ft 483 kts 140°
2026-04-28 15:04 47.35380 12.51582 37061 ft 484 kts 140°
2026-04-28 15:05 47.30524 12.58407 37054 ft 486 kts 140°
2026-04-28 15:05 47.25627 12.65272 37067 ft 485 kts 140°
2026-04-28 15:06 47.20725 12.72127 37077 ft 486 kts 141°
2026-04-28 15:06 47.15808 12.78983 37085 ft 487 kts 141°
2026-04-28 15:07 47.10881 12.85835 37081 ft 486 kts 140°
2026-04-28 15:07 47.05977 12.92639 37065 ft 484 kts 140°
2026-04-28 15:08 47.01094 12.99395 37087 ft 481 kts 140°
2026-04-28 15:08 46.96215 13.05993 37086 ft 478 kts 143°
2026-04-28 15:09 46.91132 13.12266 37086 ft 476 kts 144°
2026-04-28 15:09 46.86023 13.18442 37086 ft 477 kts 144°
2026-04-28 15:10 46.80916 13.24663 37070 ft 478 kts 143°
2026-04-28 15:10 46.75856 13.30860 37069 ft 478 kts 143°
2026-04-28 15:11 46.70771 13.37089 37081 ft 477 kts 143°
2026-04-28 15:11 46.65679 13.43311 37076 ft 477 kts 143°
2026-04-28 15:12 46.60580 13.49523 37072 ft 477 kts 143°
2026-04-28 15:12 46.55484 13.55714 37049 ft 477 kts 144°
2026-04-28 15:13 46.50380 13.61899 37065 ft 477 kts 144°
2026-04-28 15:13 46.45284 13.68059 37064 ft 477 kts 144°
2026-04-28 15:14 46.40203 13.74185 37064 ft 478 kts 144°
2026-04-28 15:14 46.35090 13.80333 37052 ft 478 kts 144°
2026-04-28 15:15 46.29966 13.86481 37064 ft 478 kts 144°
2026-04-28 15:15 46.24851 13.92602 37046 ft 477 kts 144°
2026-04-28 15:16 46.19736 13.98708 37047 ft 477 kts 144°
2026-04-28 15:16 46.14615 14.04806 37047 ft 476 kts 144°
2026-04-28 15:17 46.09543 14.10831 37060 ft 475 kts 144°
2026-04-28 15:17 46.04441 14.16875 37055 ft 474 kts 144°
2026-04-28 15:18 46.00173 14.21921 37061 ft 473 kts 144°
2026-04-28 15:18 45.95121 14.27879 37058 ft 473 kts 144°
2026-04-28 15:19 45.90035 14.33862 37050 ft 472 kts 144°
2026-04-28 15:19 45.84951 14.39830 37054 ft 472 kts 144°
2026-04-28 15:20 45.79856 14.45795 37059 ft 473 kts 144°
2026-04-28 15:20 45.74756 14.51751 37058 ft 473 kts 144°
2026-04-28 15:21 45.69642 14.57710 37061 ft 474 kts 144°
2026-04-28 15:21 45.64511 14.63673 37073 ft 475 kts 144°
2026-04-28 15:22 45.59409 14.69589 37053 ft 476 kts 144°
2026-04-28 15:22 45.54258 14.75547 37064 ft 477 kts 144°
2026-04-28 15:23 45.49095 14.81505 37069 ft 478 kts 144°
2026-04-28 15:23 45.43927 14.87454 37059 ft 478 kts 144°
2026-04-28 15:24 45.38743 14.93407 37062 ft 479 kts 144°
2026-04-28 15:24 45.33554 14.99351 37048 ft 478 kts 144°
2026-04-28 15:25 45.28403 15.05237 37066 ft 476 kts 144°
2026-04-28 15:25 45.23237 15.11128 37053 ft 475 kts 144°
2026-04-28 15:26 45.18085 15.16987 37066 ft 474 kts 144°
2026-04-28 15:26 45.12940 15.22823 37047 ft 472 kts 144°
2026-04-28 15:27 45.07813 15.28627 37049 ft 471 kts 144°
2026-04-28 15:27 45.02690 15.34411 37060 ft 470 kts 144°
2026-04-28 15:28 44.97618 15.40125 37053 ft 470 kts 144°
2026-04-28 15:28 44.92490 15.45888 37055 ft 470 kts 144°
2026-04-28 15:29 44.87350 15.51650 37047 ft 470 kts 144°
2026-04-28 15:29 44.82250 15.57355 37053 ft 471 kts 144°
2026-04-28 15:30 44.77107 15.63096 37049 ft 472 kts 144°
2026-04-28 15:30 44.71957 15.68829 37045 ft 473 kts 144°
2026-04-28 15:31 44.66790 15.74569 37037 ft 473 kts 144°
2026-04-28 15:31 44.61618 15.80301 37053 ft 474 kts 144°
2026-04-28 15:32 44.56442 15.86023 37045 ft 474 kts 144°
2026-04-28 15:32 44.51245 15.91755 37033 ft 475 kts 144°
2026-04-28 15:33 44.46090 15.97429 37038 ft 474 kts 144°
2026-04-28 15:33 44.40903 16.03124 37028 ft 473 kts 144°
2026-04-28 15:34 44.35738 16.08809 37033 ft 473 kts 144°
2026-04-28 15:34 44.30577 16.14506 37037 ft 472 kts 144°
2026-04-28 15:35 44.25421 16.20187 37034 ft 471 kts 144°
2026-04-28 15:35 44.17694 16.28671 37036 ft 471 kts 144°
2026-04-28 15:36 44.12569 16.34280 37042 ft 470 kts 144°
2026-04-28 15:36 44.07416 16.39907 37044 ft 470 kts 144°
2026-04-28 15:37 44.02264 16.45520 37042 ft 470 kts 144°
2026-04-28 15:37 43.97114 16.51118 37039 ft 470 kts 144°
2026-04-28 15:38 43.91955 16.56713 37050 ft 470 kts 144°
2026-04-28 15:38 43.86793 16.62298 37056 ft 470 kts 144°
2026-04-28 15:39 43.81637 16.67865 37048 ft 470 kts 144°
2026-04-28 15:39 43.76497 16.73402 37055 ft 470 kts 144°
2026-04-28 15:40 43.71328 16.78957 37059 ft 471 kts 144°
2026-04-28 15:40 43.66146 16.84515 37062 ft 471 kts 144°
2026-04-28 15:41 43.60958 16.90066 37045 ft 472 kts 144°
2026-04-28 15:41 43.55769 16.95606 37067 ft 472 kts 144°
2026-04-28 15:42 43.50568 17.01147 37063 ft 472 kts 144°
2026-04-28 15:42 43.45366 17.06675 37044 ft 473 kts 144°
2026-04-28 15:43 43.40155 17.12201 37044 ft 472 kts 144°
2026-04-28 15:43 43.34952 17.17707 37042 ft 472 kts 144°
2026-04-28 15:44 43.29742 17.23208 37038 ft 472 kts 144°
2026-04-28 15:44 43.24561 17.28666 37041 ft 472 kts 144°
2026-04-28 15:45 43.19354 17.34138 37037 ft 472 kts 144°
2026-04-28 15:45 43.14145 17.39602 37046 ft 471 kts 144°
2026-04-28 15:46 43.08938 17.45051 37036 ft 471 kts 145°
2026-04-28 15:46 43.03723 17.50497 37038 ft 470 kts 144°
2026-04-28 15:47 42.98530 17.55907 37054 ft 469 kts 144°
2026-04-28 15:47 42.93333 17.61310 37046 ft 469 kts 145°
2026-04-28 15:48 42.88168 17.66668 37049 ft 469 kts 145°
2026-04-28 15:48 42.82962 17.72056 37042 ft 469 kts 145°
2026-04-28 15:49 42.77766 17.77424 37048 ft 468 kts 145°
2026-04-28 15:49 42.72572 17.82777 37056 ft 468 kts 145°
2026-04-28 15:50 42.67373 17.88124 37058 ft 468 kts 145°
2026-04-28 15:50 42.62179 17.93454 37065 ft 468 kts 145°
2026-04-28 15:51 42.56974 17.98784 37064 ft 468 kts 145°
2026-04-28 15:51 42.51799 18.04072 37072 ft 469 kts 145°
2026-04-28 15:52 42.46584 18.09390 37074 ft 469 kts 145°
2026-04-28 15:52 42.41359 18.14706 37070 ft 469 kts 145°
2026-04-28 15:53 42.36144 18.20002 37056 ft 469 kts 145°
2026-04-28 15:53 42.30925 18.25290 37064 ft 469 kts 145°
2026-04-28 15:54 42.25696 18.30577 37061 ft 469 kts 145°
2026-04-28 15:54 42.20498 18.35821 37055 ft 469 kts 145°
2026-04-28 15:55 42.15268 18.41086 37058 ft 469 kts 145°
2026-04-28 15:55 42.10041 18.46338 37051 ft 469 kts 145°
2026-04-28 15:56 42.04816 18.51576 37060 ft 468 kts 145°
2026-04-28 15:56 41.99586 18.56809 37059 ft 468 kts 145°
2026-04-28 15:57 41.94364 18.62022 37057 ft 468 kts 145°
2026-04-28 15:57 41.89133 18.67234 37057 ft 468 kts 145°
2026-04-28 15:58 41.83931 18.72406 37050 ft 467 kts 145°
2026-04-28 15:58 41.78709 18.77587 37055 ft 467 kts 145°
2026-04-28 15:59 41.74329 18.81924 37058 ft 467 kts 145°
2026-04-28 15:59 41.68255 18.87927 37054 ft 466 kts 145°
2026-04-28 16:00 41.63039 18.93071 37043 ft 466 kts 145°
2026-04-28 16:00 41.57809 18.98218 37056 ft 466 kts 145°
2026-04-28 16:01 41.52591 19.03344 37059 ft 465 kts 145°
2026-04-28 16:01 41.47401 19.08415 37055 ft 465 kts 147°
2026-04-28 16:02 41.41661 19.12211 37074 ft 459 kts 163°
2026-04-28 16:02 41.35644 19.15065 37056 ft 459 kts 163°
2026-04-28 16:03 41.29620 19.17919 37056 ft 459 kts 163°
2026-04-28 16:03 41.23608 19.20815 37057 ft 459 kts 162°
2026-04-28 16:04 41.20598 19.22275 36896 ft 463 kts 162°
2026-04-28 16:04 41.17553 19.23752 36410 ft 464 kts 162°
2026-04-28 16:04 41.14534 19.25218 35888 ft 462 kts 162°
2026-04-28 16:04 41.12537 19.26188 35521 ft 462 kts 162°
2026-04-28 16:05 41.09512 19.27654 34934 ft 462 kts 162°
2026-04-28 16:05 41.05500 19.29595 34156 ft 463 kts 162°
2026-04-28 16:05 41.02471 19.31058 33477 ft 464 kts 162°
2026-04-28 16:05 40.99448 19.32517 33032 ft 460 kts 162°
2026-04-28 16:06 40.97456 19.33478 32724 ft 457 kts 162°
2026-04-28 16:06 40.94486 19.34910 32293 ft 453 kts 161°
2026-04-28 16:06 40.91538 19.36330 31860 ft 448 kts 161°
2026-04-28 16:06 40.88620 19.37733 31423 ft 445 kts 161°
2026-04-28 16:07 40.85710 19.39131 31002 ft 441 kts 161°
2026-04-28 16:07 40.82841 19.40508 30590 ft 438 kts 161°
2026-04-28 16:07 40.77141 19.43239 29683 ft 432 kts 161°
2026-04-28 16:08 40.74328 19.44586 29235 ft 428 kts 161°
2026-04-28 16:08 40.71542 19.45918 28805 ft 423 kts 161°
2026-04-28 16:08 40.68816 19.47221 28376 ft 419 kts 161°
2026-04-28 16:09 40.63370 19.49820 27529 ft 412 kts 161°
2026-04-28 16:09 40.60685 19.51099 27107 ft 409 kts 161°
2026-04-28 16:09 40.58017 19.52370 26694 ft 406 kts 161°
2026-04-28 16:10 40.52732 19.54883 25875 ft 401 kts 161°
2026-04-28 16:10 40.50111 19.56127 25472 ft 399 kts 161°
2026-04-28 16:10 40.44978 19.58562 24682 ft 394 kts 161°
2026-04-28 16:11 40.39726 19.61049 23849 ft 392 kts 161°
2026-04-28 16:11 40.34604 19.63471 22961 ft 389 kts 162°
2026-04-28 16:12 40.29528 19.65621 22064 ft 383 kts 170°
2026-04-28 16:12 40.26907 19.66295 21523 ft 384 kts 171°
2026-04-28 16:13 40.21617 19.67519 20345 ft 388 kts 172°
2026-04-28 16:13 40.18953 19.68140 19766 ft 390 kts 171°
2026-04-28 16:13 40.13593 19.69428 18605 ft 393 kts 171°
2026-04-28 16:14 40.08179 19.70759 17102 ft 393 kts 171°
2026-04-28 16:14 40.02900 19.72067 15627 ft 379 kts 171°
2026-04-28 16:15 39.97796 19.73330 14236 ft 367 kts 170°
2026-04-28 16:15 39.95340 19.73937 13515 ft 361 kts 170°
2026-04-28 16:15 39.92885 19.74542 12767 ft 356 kts 170°
2026-04-28 16:16 39.88100 19.75721 11417 ft 343 kts 169°
2026-04-28 16:16 39.85772 19.76293 10823 ft 336 kts 169°
2026-04-28 16:17 39.81278 19.77398 9716 ft 322 kts 168°
2026-04-28 16:17 39.79119 19.77928 9292 ft 311 kts 168°
2026-04-28 16:17 39.77033 19.78440 8953 ft 300 kts 168°
2026-04-28 16:17 39.74983 19.78944 8636 ft 297 kts 169°
2026-04-28 16:18 39.72958 19.79441 8315 ft 295 kts 169°
2026-04-28 16:18 39.70946 19.79934 8001 ft 292 kts 169°
2026-04-28 16:18 39.68980 19.80416 7689 ft 290 kts 169°
2026-04-28 16:18 39.67005 19.80900 7394 ft 288 kts 169°
2026-04-28 16:19 39.65036 19.81382 7082 ft 286 kts 169°
2026-04-28 16:19 39.63084 19.81859 6783 ft 285 kts 169°
2026-04-28 16:19 39.61135 19.82336 6485 ft 283 kts 170°
2026-04-28 16:19 39.59197 19.82810 6090 ft 285 kts 170°
2026-04-28 16:20 39.57255 19.83284 5763 ft 283 kts 171°
2026-04-28 16:20 39.55319 19.83756 5423 ft 283 kts 170°
2026-04-28 16:20 39.53391 19.84226 5082 ft 279 kts 171°
2026-04-28 16:20 39.51501 19.84686 4787 ft 273 kts 170°
2026-04-28 16:21 39.49651 19.85138 4528 ft 265 kts 170°
2026-04-28 16:21 39.47901 19.85563 4414 ft 254 kts 170°
2026-04-28 16:21 39.46203 19.85977 4295 ft 242 kts 170°
2026-04-28 16:21 39.44582 19.86373 4194 ft 231 kts 170°
2026-04-28 16:22 39.43037 19.86748 4105 ft 221 kts 170°
2026-04-28 16:22 39.41633 19.87400 4010 ft 211 kts 141°
2026-04-28 16:22 39.40814 19.88894 3863 ft 204 kts 107°
2026-04-28 16:22 39.40677 19.90687 3692 ft 199 kts 80°
2026-04-28 16:23 39.41018 19.92386 3508 ft 192 kts 72°
2026-04-28 16:23 39.41391 19.94019 3297 ft 191 kts 72°
2026-04-28 16:23 39.41778 19.95659 3086 ft 190 kts 66°
2026-04-28 16:23 39.42601 19.96930 2868 ft 185 kts 25°
2026-04-28 16:24 39.43845 19.97188 2716 ft 183 kts 348°
2026-04-28 16:24 39.45067 19.96762 2552 ft 180 kts 343°
2026-04-28 16:24 39.46251 19.96326 2372 ft 175 kts 343°
2026-04-28 16:24 39.47404 19.95897 2185 ft 170 kts 342°
2026-04-28 16:25 39.48525 19.95478 2018 ft 164 kts 342°
2026-04-28 16:25 39.49622 19.95067 1872 ft 165 kts 342°
2026-04-28 16:25 39.50737 19.94649 1707 ft 168 kts 342°
2026-04-28 16:25 39.51837 19.94238 1499 ft 166 kts 342°
2026-04-28 16:26 39.52926 19.93831 1299 ft 159 kts 342°
2026-04-28 16:26 39.53955 19.93453 1136 ft 152 kts 341°
2026-04-28 16:26 39.54931 19.92990 931 ft 148 kts 334°
2026-04-28 16:26 39.55884 19.92472 733 ft 151 kts 339°
2026-04-28 16:27 39.56896 19.92105 565 ft 151 kts 346°
2026-04-28 16:27 39.57935 19.91802 354 ft 154 kts 347°
2026-04-28 16:27 39.60025 19.91258 22 ft 135 kts 348°
2026-04-28 16:28 39.60709 19.91078 19 ft 72 kts 348°
2026-04-28 16:28 39.60926 19.91024 19 ft 28 kts 351°
2026-04-28 16:28 39.61039 19.91048 19 ft 8 kts 58°
2026-04-28 16:28 39.61048 19.91069 18 ft 0 kts 62°
2026-04-28 16:29 39.61009 19.91138 20 ft 9 kts 172°
2026-04-28 16:29 39.60881 19.91169 17 ft 10 kts 167°
2026-04-28 16:30 39.60814 19.91188 17 ft 11 kts 167°
2026-04-28 16:30 39.60723 19.91212 17 ft 14 kts 170°
2026-04-28 16:30 39.60641 19.91238 17 ft 11 kts 153°
2026-04-28 16:30 39.60598 19.91280 18 ft 5 kts 140°
2026-04-28 16:31 39.60583 19.91313 18 ft 4 kts 98°
2026-04-28 16:31 39.60587 19.91348 17 ft 4 kts 80°
2026-04-28 16:31 39.60591 19.91376 17 ft 1 kts 79°
2026-04-28 16:31 39.60591 19.91377 17 ft 0 kts 79°